Location: Praha
(50.0830°N, 14.4670°E)
Time: 10:56:18
(UTC+02:00)

ISS - Pass Details

Date: 21 May 2019
Orbit: 407 x 410 km, 51.6° (Epoch: 21 May)

Event Time Altitude Azimuth Distance (km) Brightness Sun altitude
Rises 01:59:54 0° 287° (WNW) 2,338 0.1 -18.5°
Reaches altitude 10° 02:01:59 10° 284° (WNW) 1,475 -1.0 -18.4°
Enters shadow 02:04:32 47° 262° (W) 556 -3.4 -18.3°
